Location: Eaglesham
(55.7833°N, 117.9000°W)
Time: 19:35:59
(UTC+00:00)

ISS - Pass Details

Date: 05 December 2021
Orbit: 413 x 422 km, 51.6° (Epoch: 23 January)

Event Time Altitude Azimuth Distance (km) Brightness Sun altitude
Rises 00:33:34 0° 269° (W) 2,387 1.4 -9.3°
Reaches altitude 10° 00:35:47 10° 260° (W) 1,518 0.5 -9.6°
Maximum altitude 00:38:53 33° 195° (SSW) 737 -2.1 -10.0°
Drops below altitude 10° 00:41:58 10° 129° (SE) 1,510 -1.2 -10.4°
Enters shadow 00:43:34 - 121° (ESE) 2,124 -0.5 -10.6°
